When you browse on this site, cookies collect data to enhance your experience and personalize the content and advertising you see.
Visit our Privacy Policy to learn more. By continuing to use the site, you agree to this use of cookies and data.
  • In Portugal
  • List of Countries
  • For 7 days
  • Water Temperature
  • Weather Map
  • Weather Widgets
  • user-avatar
    Login

    Hourly Weather Lisbon

    Today, 18 September, Wednesday

    Time Temperature Precipitation Wind Pressure Humidity
    00:00 +18°C° 0 mm 1 mps 757 mmHg 87%
    01:00 +18°C° 0 mm 1 mps 757 mmHg 87%
    02:00 +16°C° 0 mm 1 mps 757 mmHg 87%
    03:00 +16°C° 0 mm 1 mps 757 mmHg 88%
    04:00 +16°C° 0 mm 1 mps 757 mmHg 88%
    05:00 +16°C° 0 mm 1 mps 757 mmHg 89%
    06:00 +19°C° 0 mm 1 mps 757 mmHg 81%
    07:00 +21°C° 0 mm 1 mps 758 mmHg 73%
    08:00 +21°C° 0 mm 0 mps 758 mmHg 65%
    09:00 +24°C° 0 mm 1 mps 758 mmHg 58%
    10:00 +26°C° 0 mm 2 mps 758 mmHg 52%
    11:00 +27°C° 0 mm 3 mps 758 mmHg 45%
    12:00 +27°C° 0 mm 3 mps 758 mmHg 47%
    13:00 +27°C° 0 mm 4 mps 758 mmHg 49%
    14:00 +27°C° 0 mm 4 mps 757 mmHg 50%
    15:00 +25°C° 0 mm 4 mps 757 mmHg 56%
    16:00 +23°C° 0 mm 4 mps 758 mmHg 61%
    17:00 +22°C° 0 mm 4 mps 758 mmHg 67%
    18:00 +21°C° 0 mm 4 mps 758 mmHg 74%
    19:00 +19°C° 0 mm 4 mps 758 mmHg 80%
    20:00 +18°C° 0 mm 3 mps 759 mmHg 87%
    21:00 +18°C° 0 mm 3 mps 759 mmHg 88%
    22:00 +18°C° 0 mm 3 mps 759 mmHg 89%
    23:00 +17°C° 0 mm 3 mps 759 mmHg 89%

    Tomorrow, 19 September, Thursday

    Time Temperature Precipitation Wind Pressure Humidity
    00:00 +17°C° 0 mm 2 mps 758 mmHg 89%
    01:00 +17°C° 0 mm 2 mps 758 mmHg 90%
    02:00 +17°C° 0 mm 2 mps 758 mmHg 90%
    03:00 +17°C° 0 mm 2 mps 758 mmHg 90%
    04:00 +17°C° 0 mm 2 mps 758 mmHg 91%
    05:00 +16°C° 0 mm 2 mps 758 mmHg 91%
    06:00 +18°C° 0 mm 2 mps 758 mmHg 84%
    07:00 +20°C° 0 mm 2 mps 759 mmHg 77%
    08:00 +21°C° 0 mm 2 mps 759 mmHg 70%
    09:00 +24°C° 0 mm 2 mps 759 mmHg 64%
    10:00 +25°C° 0 mm 3 mps 758 mmHg 57%
    11:00 +27°C° 0 mm 3 mps 758 mmHg 50%
    12:00 +27°C° 0 mm 4 mps 758 mmHg 52%
    13:00 +26°C° 0 mm 5 mps 758 mmHg 54%
    14:00 +26°C° 0 mm 5 mps 757 mmHg 56%
    15:00 +24°C° 0 mm 6 mps 757 mmHg 63%
    16:00 +22°C° 0 mm 6 mps 757 mmHg 70%
    17:00 +21°C° 0 mm 6 mps 757 mmHg 77%
    18:00 +20°C° 0 mm 5 mps 758 mmHg 81%
    19:00 +19°C° 0 mm 4 mps 758 mmHg 86%
    20:00 +18°C° 0 mm 3 mps 758 mmHg 90%
    21:00 +18°C° 0 mm 3 mps 758 mmHg 90%
    22:00 +18°C° 0 mm 3 mps 758 mmHg 90%
    23:00 +18°C° 0 mm 2 mps 757 mmHg 90%

    Day after tomorrow, 20 September, Friday

    Time Temperature Precipitation Wind Pressure Humidity
    00:00 +18°C° 0.1 mm 3 mps 757 mmHg 90%
    01:00 +18°C° 0.1 mm 3 mps 757 mmHg 90%
    02:00 +18°C° 0.1 mm 3 mps 757 mmHg 89%
    03:00 +18°C° 0.1 mm 2 mps 757 mmHg 87%
    04:00 +19°C° 0.1 mm 1 mps 757 mmHg 86%
    05:00 +19°C° 0.1 mm 1 mps 756 mmHg 84%
    06:00 +20°C° 0 mm 1 mps 757 mmHg 78%
    07:00 +21°C° 0 mm 1 mps 757 mmHg 73%
    08:00 +22°C° 0 mm 1 mps 757 mmHg 68%
    09:00 +23°C° 0 mm 1 mps 757 mmHg 63%
    10:00 +24°C° 0 mm 2 mps 757 mmHg 57%
    11:00 +25°C° 0 mm 2 mps 757 mmHg 52%
    12:00 +25°C° 0 mm 3 mps 756 mmHg 53%
    13:00 +25°C° 0 mm 4 mps 756 mmHg 53%
    14:00 +26°C° 0 mm 5 mps 756 mmHg 53%
    15:00 +25°C° 0 mm 4 mps 755 mmHg 59%
    16:00 +22°C° 0 mm 4 mps 755 mmHg 65%
    17:00 +21°C° 0 mm 3 mps 755 mmHg 71%
    18:00 +20°C° 0 mm 3 mps 755 mmHg 77%
    19:00 +19°C° 0 mm 3 mps 756 mmHg 82%
    20:00 +18°C° 0 mm 2 mps 756 mmHg 88%
    21:00 +18°C° 0 mm 3 mps 755 mmHg 89%
    22:00 +18°C° 0 mm 3 mps 755 mmHg 90%
    23:00 +18°C° 0 mm 3 mps 754 mmHg 91%

    21 September, Saturday

    Time Temperature Precipitation Wind Pressure Humidity
    00:00 +18°C° 0 mm 3 mps 754 mmHg 92%
    01:00 +19°C° 0 mm 4 mps 754 mmHg 92%
    02:00 +19°C° 0 mm 4 mps 754 mmHg 92%
    03:00 +19°C° 0.4 mm 4 mps 753 mmHg 92%
    04:00 +19°C° 0.4 mm 5 mps 753 mmHg 92%
    05:00 +19°C° 0.4 mm 5 mps 753 mmHg 92%
    06:00 +19°C° 1.1 mm 5 mps 753 mmHg 92%
    07:00 +20°C° 1.1 mm 6 mps 753 mmHg 92%
    08:00 +20°C° 1.1 mm 6 mps 753 mmHg 92%
    09:00 +20°C° 0.4 mm 6 mps 753 mmHg 90%
    10:00 +21°C° 0.4 mm 6 mps 753 mmHg 87%
    11:00 +21°C° 0.4 mm 6 mps 753 mmHg 85%
    12:00 +21°C° 0.8 mm 6 mps 753 mmHg 87%
    13:00 +21°C° 0.8 mm 6 mps 753 mmHg 89%
    14:00 +20°C° 0.8 mm 6 mps 753 mmHg 91%
    15:00 +20°C° 0.9 mm 5 mps 753 mmHg 90%
    16:00 +20°C° 0.9 mm 5 mps 753 mmHg 88%
    17:00 +19°C° 0.9 mm 5 mps 754 mmHg 86%
    18:00 +19°C° 0 mm 5 mps 754 mmHg 85%
    19:00 +18°C° 0 mm 4 mps 755 mmHg 84%
    20:00 +18°C° 0 mm 3 mps 756 mmHg 84%
    21:00 +17°C° 0 mm 3 mps 756 mmHg 85%
    22:00 +17°C° 0 mm 3 mps 756 mmHg 87%
    23:00 +16°C° 0 mm 2 mps 756 mmHg 88%

    22 September, Sunday

    Time Temperature Precipitation Wind Pressure Humidity
    00:00 +16°C° 0 mm 2 mps 756 mmHg 89%
    01:00 +16°C° 0 mm 2 mps 757 mmHg 89%
    02:00 +16°C° 0 mm 1 mps 757 mmHg 90%
    03:00 +16°C° 0 mm 1 mps 757 mmHg 91%
    04:00 +16°C° 0 mm 1 mps 757 mmHg 91%
    05:00 +16°C° 0 mm 1 mps 758 mmHg 92%
    06:00 +18°C° 0 mm 1 mps 758 mmHg 84%
    07:00 +19°C° 0 mm 2 mps 758 mmHg 77%
    08:00 +20°C° 0 mm 2 mps 759 mmHg 69%
    09:00 +21°C° 0 mm 2 mps 759 mmHg 61%
    10:00 +23°C° 0 mm 2 mps 759 mmHg 54%
    11:00 +24°C° 0 mm 3 mps 759 mmHg 46%
    12:00 +25°C° 0 mm 3 mps 759 mmHg 46%
    13:00 +25°C° 0 mm 4 mps 759 mmHg 47%
    14:00 +25°C° 0 mm 5 mps 759 mmHg 47%
    15:00 +22°C° 0 mm 5 mps 759 mmHg 51%
    16:00 +21°C° 0 mm 5 mps 759 mmHg 55%
    17:00 +20°C° 0 mm 5 mps 759 mmHg 59%
    18:00 +19°C° 0 mm 4 mps 760 mmHg 65%
    19:00 +18°C° 0 mm 4 mps 760 mmHg 72%
    20:00 +15°C° 0 mm 4 mps 761 mmHg 78%
    21:00 +16°C° 0 mm 3 mps 761 mmHg 79%
    22:00 +16°C° 0 mm 3 mps 761 mmHg 80%
    23:00 +14°C° 0 mm 3 mps 761 mmHg 81%

    23 September, Monday

    Time Temperature Precipitation Wind Pressure Humidity
    00:00 +14°C° 0 mm 3 mps 761 mmHg 81%
    01:00 +14°C° 0 mm 3 mps 761 mmHg 81%
    02:00 +15°C° 0 mm 2 mps 760 mmHg 80%
    03:00 +14°C° 0 mm 2 mps 760 mmHg 81%
    04:00 +14°C° 0 mm 2 mps 760 mmHg 82%
    05:00 +14°C° 0 mm 2 mps 760 mmHg 82%
    06:00 +15°C° 0 mm 2 mps 760 mmHg 74%
    07:00 +17°C° 0 mm 2 mps 761 mmHg 65%
    08:00 +19°C° 0 mm 2 mps 761 mmHg 57%
    09:00 +21°C° 0 mm 2 mps 761 mmHg 48%
    10:00 +24°C° 0 mm 2 mps 761 mmHg 40%
    11:00 +26°C° 0 mm 2 mps 761 mmHg 31%
    12:00 +27°C° 0 mm 3 mps 760 mmHg 31%
    13:00 +27°C° 0 mm 3 mps 760 mmHg 31%
    14:00 +27°C° 0 mm 4 mps 759 mmHg 31%
    15:00 +25°C° 0 mm 4 mps 759 mmHg 38%
    16:00 +23°C° 0 mm 5 mps 759 mmHg 44%
    17:00 +21°C° 0 mm 5 mps 759 mmHg 51%
    18:00 +20°C° 0 mm 5 mps 760 mmHg 56%
    19:00 +18°C° 0 mm 4 mps 760 mmHg 62%
    20:00 +17°C° 0 mm 4 mps 761 mmHg 68%
    21:00 +17°C° 0 mm 4 mps 761 mmHg 70%
    22:00 +16°C° 0 mm 3 mps 760 mmHg 72%
    23:00 +16°C° 0 mm 3 mps 760 mmHg 75%
    Show more